| time (UTC) | temp C | wind direction | speed KPH | gust KPH | rain 1hr cm | rain 24hr cm | rain mn cm | humidity % | barometer mb |
| 20260507201952 | 11 | 0.0 | 0.0 | 0.00 | 0.00 | 0.00 | 87 | ||
| 20260507200918 | 12 | 0.0 | 0.0 | 0.00 | 0.00 | 0.00 | 87 | ||
| 20260507195844 | 12 | 0.0 | 0.0 | 0.00 | 0.00 | 0.00 | 86 | ||
| 20260507193736 | 12 | 0.0 | 0.0 | 0.00 | 0.00 | 0.00 | 85 | ||
| 20260507192702 | 12 | 0.0 | 0.0 | 0.00 | 0.00 | 0.00 | 85 | ||
| 20260507191628 | 12 | 0.0 | 0.0 | 0.00 | 0.00 | 0.00 | 84 | ||
| 20260507190553 | 12 | 0.0 | 0.0 | 0.00 | 0.00 | 0.00 | 83 | ||
| 20260507185519 | 12 | 0.0 | 0.0 | 0.00 | 0.00 | 0.00 | 83 | ||
| 20260507184445 | 13 | 0.0 | 0.0 | 0.00 | 0.00 | 0.00 | 81 | ||
| 20260507183411 | 13 | 0.0 | 0.0 | 0.00 | 0.00 | 0.00 | 80 | ||
| 20260507180226 | 15 | 0.0 | 0.0 | 0.00 | 0.00 | 0.00 | 76 | ||
| 20260507175150 | 16 | 0.0 | 0.0 | 0.00 | 0.00 | 0.00 | 74 | ||
| 20260507174113 | 17 | 0.0 | 0.0 | 0.00 | 0.00 | 0.00 | 73 | ||
| 20260507173037 | 17 | 0.0 | 0.0 | 0.00 | 0.00 | 0.00 | 71 | ||
| 20260507172001 | 18 | 0.0 | 0.0 | 0.00 | 0.00 | 0.00 | 70 | ||
| 20260507170924 | 18 | 0.0 | 0.0 | 0.00 | 0.00 | 0.00 | 68 | ||
| 20260507165848 | 18 | 0.0 | 0.0 | 0.00 | 0.00 | 0.00 | 67 | ||
| 20260507162659 | 18 | 0.0 | 0.0 | 0.00 | 0.00 | 0.00 | 61 | ||
| 20260507161622 | 19 | 0.0 | 0.0 | 0.00 | 0.00 | 0.00 | 62 | ||
| 20260507160545 | 19 | 0.0 | 0.0 | 0.00 | 0.00 | 0.00 | 59 | ||
| 20260507154432 | 20 | 0.0 | 0.0 | 0.00 | 0.00 | 0.00 | 53 | ||
| 20260507153355 | 20 | 0.0 | 0.0 | 0.00 | 0.00 | 0.00 | 52 | ||
| 20260507152316 | 20 | 0.0 | 0.0 | 0.00 | 0.00 | 0.00 | 47 | ||
| 20260507151239 | 21 | 0.0 | 0.0 | 0.00 | 0.00 | 0.00 | 49 | ||
| 20260507150200 | 21 | 0.0 | 0.0 | 0.00 | 0.00 | 0.00 | 48 | ||
| 20260507144044 | 22 | 0.0 | 0.0 | 0.00 | 0.00 | 0.00 | 48 | ||
| 20260507143005 | 23 | 0.0 | 0.0 | 0.00 | 0.00 | 0.00 | 46 | ||
| 20260507140848 | 23 | 0.0 | 0.0 | 0.00 | 0.00 | 0.00 | 46 | ||
| 20260507135809 | 23 | 0.0 | 0.0 | 0.00 | 0.00 | 0.00 | 45 | ||
| 20260507134729 | 25 | 0.0 | 0.0 | 0.00 | 0.00 | 0.00 | 43 | ||
| 20260507132608 | 27 | 0.0 | 0.0 | 0.00 | 0.00 | 0.00 | 42 | ||
| 20260507130447 | 28 | 0.0 | 0.0 | 0.00 | 0.00 | 0.00 | 41 | ||
| 20260507125406 | 28 | 0.0 | 0.0 | 0.00 | 0.00 | 0.00 | 40 | ||
| 20260507124324 | 28 | 0.0 | 0.0 | 0.00 | 0.00 | 0.00 | 39 | ||
| 20260507122201 | 28 | 0.0 | 0.0 | 0.00 | 0.00 | 0.00 | 39 | ||
| 20260507121119 | 28 | 0.0 | 0.0 | 0.00 | 0.00 | 0.00 | 33 | ||
| 20260507120036 | 29 | 0.0 | 0.0 | 0.00 | 0.00 | 0.00 | 31 | ||
| 20260507114953 | 28 | 0.0 | 0.0 | 0.00 | 0.00 | 0.00 | 33 | ||
| 20260507113911 | 28 | 0.0 | 0.0 | 0.00 | 0.00 | 0.00 | 34 | ||
| 20260507112829 | 27 | 0.0 | 0.0 | 0.00 | 0.00 | 0.00 | 34 | ||
| 20260507111745 | 27 | 0.0 | 0.0 | 0.00 | 0.00 | 0.00 | 35 | ||
| 20260507110703 | 28 | 0.0 | 0.0 | 0.00 | 0.00 | 0.00 | 36 | ||
| 20260507105618 | 28 | 0.0 | 0.0 | 0.00 | 0.00 | 0.00 | 35 | ||
| 20260507103453 | 27 | 0.0 | 0.0 | 0.00 | 0.00 | 0.00 | 36 | ||
| 20260507102409 | 28 | 0.0 | 0.0 | 0.00 | 0.00 | 0.00 | 35 | ||
| 20260507101325 | 27 | 0.0 | 0.0 | 0.00 | 0.00 | 0.00 | 34 | ||
| 20260507100242 | 27 | 0.0 | 0.0 | 0.00 | 0.00 | 0.00 | 36 | ||
| 20260507095158 | 27 | 0.0 | 0.0 | 0.00 | 0.00 | 0.00 | 36 | ||
| 20260507094115 | 27 | 0.0 | 0.0 | 0.00 | 0.00 | 0.00 | 37 | ||
| 20260507090903 | 26 | 0.0 | 0.0 | 0.00 | 0.00 | 0.00 | 37 | ||
| 20260507083653 | 25 | 0.0 | 0.0 | 0.00 | 0.00 | 0.00 | 40 | ||
| 20260507082609 | 25 | 0.0 | 0.0 | 0.00 | 0.00 | 0.00 | 42 | ||
| 20260507080444 | 21 | 0.0 | 0.0 | 0.00 | 0.00 | 0.00 | 55 | ||
| 20260507075403 | 22 | 0.0 | 0.0 | 0.00 | 0.00 | 0.00 | 52 | ||
| 20260507073240 | 21 | 0.0 | 0.0 | 0.00 | 0.00 | 0.00 | 56 | ||
| 20260507072159 | 20 | 0.0 | 0.0 | 0.00 | 0.00 | 0.00 | 60 | ||
| 20260507071118 | 19 | 0.0 | 0.0 | 0.00 | 0.00 | 0.00 | 67 | ||
| 20260507070038 | 18 | 0.0 | 0.0 | 0.00 | 0.00 | 0.00 | 70 | ||
| 20260507063920 | 16 | 0.0 | 0.0 | 0.00 | 0.00 | 0.00 | 81 | ||
| 20260507062842 | 15 | 0.0 | 0.0 | 0.00 | 0.00 | 0.00 | 83 | ||
| 20260507060729 | 13 | 0.0 | 0.0 | 0.00 | 0.00 | 0.00 | 95 | ||
| 20260507053544 | 10 | 0.0 | 0.0 | 0.00 | 0.00 | 0.00 | 97 | ||
| 20260507052511 | 9 | 0.0 | 0.0 | 0.00 | 0.00 | 0.00 | 96 | ||
| 20260507050405 | 7 | 0.0 | 0.0 | 0.00 | 0.00 | 0.00 | 96 | ||
| 20260507045332 | 7 | 0.0 | 0.0 | 0.00 | 0.00 | 0.00 | 96 | ||
| 20260507044300 | 6 | 0.0 | 0.0 | 0.00 | 0.00 | 0.00 | 95 | ||
| 20260507043228 | 6 | 0.0 | 0.0 | 0.00 | 0.00 | 0.00 | 95 | ||
| 20260507041123 | 6 | 0.0 | 0.0 | 0.00 | 0.00 | 0.00 | 95 | ||
| 20260507040051 | 6 | 0.0 | 0.0 | 0.00 | 0.00 | 0.00 | 95 | ||
| 20260507035019 | 6 | 0.0 | 0.0 | 0.00 | 0.00 | 0.00 | 95 | ||
| 20260507033947 | 6 | 0.0 | 0.0 | 0.00 | 0.00 | 0.00 | 95 | ||
| 20260507030810 | 6 | 0.0 | 0.0 | 0.00 | 0.00 | 0.00 | 94 | ||
| 20260507022602 | 6 | 0.0 | 0.0 | 0.00 | 0.00 | 0.00 | 94 | ||
| 20260507021531 | 6 | 0.0 | 0.0 | 0.00 | 0.00 | 0.00 | 94 | ||
| 20260507015427 | 7 | 0.0 | 0.0 | 0.00 | 0.00 | 0.00 | 94 | ||
| 20260507014353 | 7 | 0.0 | 0.0 | 0.00 | 0.00 | 0.00 | 94 | ||
| 20260507013321 | 7 | 0.0 | 0.0 | 0.00 | 0.00 | 0.00 | 94 | ||
| 20260507011216 | 7 | 0.0 | 0.0 | 0.00 | 0.00 | 0.00 | 93 | ||
| 20260507010144 | 7 | 0.0 | 0.0 | 0.00 | 0.00 | 0.00 | 93 | ||
| 20260507005112 | 7 | 0.0 | 0.0 | 0.00 | 0.00 | 0.00 | 94 | ||
| 20260507004039 | 7 | 0.0 | 0.0 | 0.00 | 0.00 | 0.00 | 93 | ||
| 20260507003007 | 7 | 0.0 | 0.0 | 0.00 | 0.00 | 0.00 | 93 | ||
| 20260507001935 | 7 | 0.0 | 0.0 | 0.00 | 0.00 | 0.00 | 93 | ||
| 20260507000902 | 7 | 0.0 | 0.0 | 0.00 | 0.00 | 0.00 | 93 | ||
| 20260506235830 | 8 | 0.0 | 0.0 | 0.00 | 0.00 | 0.00 | 93 | ||
| 20260506234757 | 8 | 0.0 | 0.0 | 0.00 | 0.00 | 0.00 | 93 | ||
| 20260506233724 | 8 | 0.0 | 0.0 | 0.00 | 0.00 | 0.00 | 93 | ||
| 20260506232650 | 8 | 0.0 | 0.0 | 0.00 | 0.00 | 0.00 | 93 | ||
| 20260506231618 | 8 | 0.0 | 0.0 | 0.00 | 0.00 | 0.00 | 92 | ||
| 20260506230544 | 8 | 0.0 | 0.0 | 0.00 | 0.00 | 0.00 | 92 | ||
| 20260506225510 | 8 | 0.0 | 0.0 | 0.00 | 0.00 | 0.00 | 92 | ||
| 20260506224437 | 9 | 0.0 | 0.0 | 0.00 | 0.00 | 0.00 | 92 | ||
| 20260506223403 | 10 | 0.0 | 0.0 | 0.00 | 0.00 | 0.00 | 92 | ||
| 20260506222331 | 10 | 0.0 | 0.0 | 0.00 | 0.00 | 0.00 | 92 | ||
| 20260506221255 | 10 | 0.0 | 0.0 | 0.00 | 0.00 | 0.00 | 92 | ||
| 20260506220221 | 10 | 0.0 | 0.0 | 0.00 | 0.00 | 0.00 | 93 | ||
| 20260506215147 | 10 | 0.0 | 0.0 | 0.00 | 0.00 | 0.00 | 93 | ||
| 20260506214114 | 9 | 0.0 | 0.0 | 0.00 | 0.00 | 0.00 | 91 | ||
| 20260506213040 | 9 | 0.0 | 0.0 | 0.00 | 0.00 | 0.00 | 90 | ||
| 20260506212006 | 10 | 0.0 | 0.0 | 0.00 | 0.00 | 0.00 | 90 | ||
| 20260506210932 | 10 | 0.0 | 0.0 | 0.00 | 0.00 | 0.00 | 90 | ||
| 20260506205858 | 10 | 0.0 | 0.0 | 0.00 | 0.00 | 0.00 | 90 | ||
| 20260506204824 | 10 | 0.0 | 0.0 | 0.00 | 0.00 | 0.00 | 90 | ||
| 20260506203751 | 10 | 0.0 | 0.0 | 0.00 | 0.00 | 0.00 | 90 |